• In Netherlands
  • List of Countries
  • For 7 days
  • Water Temperature
  • Satellite Maps
  • Weather Map
  • Weather Widgets
  • user-avatar
    Login

    Hourly Weather Bregenz

    Today, 22 September, Friday

    Time Temperature Precipitation Wind Pressure Humidity
    00:00 +5°C° 0 mm 1 mps 647 mmHg 75%
    01:00 +5°C° 0 mm 1 mps 647 mmHg 73%
    02:00 +5°C° 0 mm 1 mps 647 mmHg 72%
    03:00 +5°C° 0 mm 1 mps 647 mmHg 71%
    04:00 +5°C° 0 mm 1 mps 647 mmHg 70%
    05:00 +6°C° 0 mm 1 mps 647 mmHg 70%
    06:00 +6°C° 0 mm 1 mps 647 mmHg 69%
    07:00 +6°C° 0 mm 1 mps 647 mmHg 69%
    08:00 +8°C° 0 mm 1 mps 648 mmHg 63%
    09:00 +11°C° 0 mm 1 mps 649 mmHg 57%
    10:00 +13°C° 0 mm 1 mps 650 mmHg 51%
    11:00 +14°C° 0 mm 1 mps 650 mmHg 50%
    12:00 +15°C° 0 mm 1 mps 650 mmHg 49%
    13:00 +16°C° 0 mm 2 mps 650 mmHg 47%
    14:00 +16°C° 0 mm 2 mps 650 mmHg 50%
    15:00 +15°C° 0 mm 1 mps 650 mmHg 53%
    16:00 +15°C° 0 mm 1 mps 650 mmHg 55%
    17:00 +13°C° 0 mm 1 mps 649 mmHg 65%
    18:00 +10°C° 0 mm 1 mps 649 mmHg 74%
    19:00 +8°C° 0 mm 1 mps 648 mmHg 84%
    20:00 +7°C° 0 mm 1 mps 649 mmHg 84%
    21:00 +7°C° 0 mm 1 mps 649 mmHg 84%
    22:00 +7°C° 0 mm 1 mps 649 mmHg 83%
    23:00 +6°C° 0 mm 1 mps 649 mmHg 83%

    Tomorrow, 23 September, Saturday

    Time Temperature Precipitation Wind Pressure Humidity
    00:00 +6°C° 0 mm 1 mps 649 mmHg 82%
    01:00 +6°C° 0 mm 1 mps 649 mmHg 82%
    02:00 +6°C° 0 mm 1 mps 649 mmHg 82%
    03:00 +6°C° 0 mm 1 mps 648 mmHg 82%
    04:00 +5°C° 0 mm 1 mps 648 mmHg 82%
    05:00 +6°C° 0 mm 1 mps 648 mmHg 82%
    06:00 +6°C° 0 mm 1 mps 648 mmHg 82%
    07:00 +6°C° 0 mm 1 mps 649 mmHg 81%
    08:00 +9°C° 0 mm 1 mps 649 mmHg 74%
    09:00 +11°C° 0 mm 1 mps 650 mmHg 67%
    10:00 +14°C° 0 mm 1 mps 650 mmHg 61%
    11:00 +14°C° 0.1 mm 1 mps 650 mmHg 60%
    12:00 +15°C° 0.1 mm 1 mps 650 mmHg 59%
    13:00 +16°C° 0.1 mm 2 mps 650 mmHg 59%
    14:00 +15°C° 0.4 mm 1 mps 650 mmHg 63%
    15:00 +15°C° 0.4 mm 1 mps 650 mmHg 66%
    16:00 +14°C° 0.4 mm 1 mps 649 mmHg 70%
    17:00 +12°C° 0.4 mm 1 mps 649 mmHg 77%
    18:00 +10°C° 0.4 mm 1 mps 648 mmHg 85%
    19:00 +8°C° 0.4 mm 1 mps 648 mmHg 92%
    20:00 +8°C° 0.2 mm 1 mps 648 mmHg 92%
    21:00 +8°C° 0.2 mm 1 mps 648 mmHg 93%
    22:00 +8°C° 0.2 mm 1 mps 648 mmHg 94%
    23:00 +7°C° 0.2 mm 1 mps 648 mmHg 94%

    Day after tomorrow, 24 September, Sunday

    Time Temperature Precipitation Wind Pressure Humidity
    00:00 +7°C° 0.2 mm 1 mps 648 mmHg 94%
    01:00 +7°C° 0.2 mm 1 mps 647 mmHg 94%
    02:00 +7°C° 0.2 mm 1 mps 647 mmHg 95%
    03:00 +6°C° 0.2 mm 1 mps 647 mmHg 95%
    04:00 +6°C° 0.2 mm 1 mps 647 mmHg 95%
    05:00 +6°C° 0.1 mm 1 mps 647 mmHg 95%
    06:00 +6°C° 0.1 mm 1 mps 647 mmHg 95%
    07:00 +6°C° 0.1 mm 1 mps 647 mmHg 95%
    08:00 +8°C° 0 mm 1 mps 648 mmHg 90%
    09:00 +9°C° 0 mm 1 mps 648 mmHg 84%
    10:00 +11°C° 0 mm 1 mps 649 mmHg 79%
    11:00 +12°C° 0.1 mm 1 mps 649 mmHg 73%
    12:00 +13°C° 0.1 mm 1 mps 649 mmHg 68%
    13:00 +14°C° 0.1 mm 1 mps 649 mmHg 62%
    14:00 +13°C° 0.1 mm 1 mps 649 mmHg 64%
    15:00 +13°C° 0.1 mm 1 mps 648 mmHg 66%
    16:00 +12°C° 0.1 mm 1 mps 648 mmHg 68%
    17:00 +11°C° 0.2 mm 1 mps 648 mmHg 76%
    18:00 +9°C° 0.2 mm 1 mps 648 mmHg 84%
    19:00 +8°C° 0.2 mm 1 mps 648 mmHg 92%
    20:00 +7°C° 0.1 mm 1 mps 648 mmHg 93%
    21:00 +7°C° 0.1 mm 1 mps 648 mmHg 93%
    22:00 +7°C° 0.1 mm 1 mps 648 mmHg 94%
    23:00 +6°C° 0 mm 1 mps 647 mmHg 94%

    25 September, Monday

    Time Temperature Precipitation Wind Pressure Humidity
    00:00 +6°C° 0 mm 1 mps 647 mmHg 94%
    01:00 +5°C° 0 mm 1 mps 647 mmHg 94%
    02:00 +5°C° 0 mm 1 mps 647 mmHg 93%
    03:00 +5°C° 0 mm 1 mps 647 mmHg 92%
    04:00 +4°C° 0 mm 1 mps 646 mmHg 91%
    05:00 +4°C° 0 mm 1 mps 646 mmHg 89%
    06:00 +5°C° 0 mm 1 mps 647 mmHg 88%
    07:00 +5°C° 0 mm 1 mps 647 mmHg 86%
    08:00 +7°C° 0 mm 1 mps 647 mmHg 78%
    09:00 +9°C° 0 mm 0 mps 648 mmHg 70%
    10:00 +11°C° 0 mm 0 mps 648 mmHg 62%
    11:00 +13°C° 0 mm 1 mps 648 mmHg 58%
    12:00 +14°C° 0 mm 1 mps 648 mmHg 54%
    13:00 +15°C° 0 mm 1 mps 648 mmHg 49%
    14:00 +15°C° 0 mm 1 mps 648 mmHg 52%
    15:00 +14°C° 0 mm 1 mps 648 mmHg 55%
    16:00 +14°C° 0 mm 1 mps 648 mmHg 58%
    17:00 +12°C° 0.1 mm 1 mps 648 mmHg 68%
    18:00 +10°C° 0.1 mm 1 mps 647 mmHg 78%
    19:00 +7°C° 0.1 mm 1 mps 647 mmHg 88%
    20:00 +7°C° 0 mm 1 mps 647 mmHg 89%
    21:00 +7°C° 0 mm 1 mps 647 mmHg 91%
    22:00 +6°C° 0 mm 1 mps 647 mmHg 92%
    23:00 +6°C° 0 mm 1 mps 647 mmHg 92%

    26 September, Tuesday

    Time Temperature Precipitation Wind Pressure Humidity
    00:00 +6°C° 0 mm 1 mps 647 mmHg 91%
    01:00 +6°C° 0 mm 1 mps 647 mmHg 91%
    02:00 +5°C° 0 mm 1 mps 647 mmHg 91%
    03:00 +5°C° 0 mm 1 mps 647 mmHg 91%
    04:00 +5°C° 0 mm 1 mps 647 mmHg 91%
    05:00 +5°C° 0 mm 1 mps 647 mmHg 91%
    06:00 +5°C° 0 mm 1 mps 647 mmHg 90%
    07:00 +6°C° 0 mm 1 mps 647 mmHg 89%
    08:00 +8°C° 0 mm 1 mps 648 mmHg 81%
    09:00 +10°C° 0 mm 1 mps 649 mmHg 73%
    10:00 +13°C° 0 mm 1 mps 649 mmHg 66%
    11:00 +13°C° 0 mm 1 mps 649 mmHg 64%
    12:00 +14°C° 0 mm 1 mps 649 mmHg 63%
    13:00 +14°C° 0 mm 2 mps 649 mmHg 61%
    14:00 +14°C° 0.2 mm 2 mps 649 mmHg 65%
    15:00 +14°C° 0.2 mm 2 mps 649 mmHg 68%
    16:00 +13°C° 0.2 mm 2 mps 649 mmHg 72%
    17:00 +12°C° 0.2 mm 1 mps 649 mmHg 79%
    18:00 +10°C° 0.2 mm 1 mps 648 mmHg 86%
    19:00 +8°C° 0.2 mm 1 mps 648 mmHg 94%
    20:00 +8°C° 0 mm 1 mps 648 mmHg 94%
    21:00 +7°C° 0 mm 1 mps 648 mmHg 94%
    22:00 +7°C° 0 mm 1 mps 648 mmHg 95%
    23:00 +7°C° 0 mm 1 mps 648 mmHg 94%

    27 September, Wednesday

    Time Temperature Precipitation Wind Pressure Humidity
    00:00 +6°C° 0 mm 1 mps 648 mmHg 94%
    01:00 +6°C° 0 mm 1 mps 648 mmHg 94%
    02:00 +6°C° 0 mm 1 mps 648 mmHg 94%
    03:00 +6°C° 0 mm 1 mps 648 mmHg 94%
    04:00 +6°C° 0 mm 1 mps 648 mmHg 94%
    05:00 +6°C° 0 mm 1 mps 649 mmHg 93%
    06:00 +6°C° 0 mm 1 mps 649 mmHg 93%
    07:00 +6°C° 0 mm 1 mps 649 mmHg 92%
    08:00 +8°C° 0 mm 1 mps 650 mmHg 85%
    09:00 +10°C° 0 mm 1 mps 650 mmHg 79%
    10:00 +13°C° 0 mm 1 mps 651 mmHg 72%
    11:00 +13°C° 0 mm 1 mps 651 mmHg 69%
    12:00 +14°C° 0 mm 2 mps 651 mmHg 66%
    13:00 +15°C° 0 mm 2 mps 651 mmHg 63%
    14:00 +15°C° 0.2 mm 2 mps 651 mmHg 66%
    15:00 +14°C° 0.2 mm 2 mps 651 mmHg 69%
    16:00 +14°C° 0.2 mm 2 mps 651 mmHg 72%
    17:00 +12°C° 0.1 mm 2 mps 651 mmHg 80%
    18:00 +10°C° 0.1 mm 1 mps 650 mmHg 87%
    19:00 +9°C° 0.1 mm 1 mps 650 mmHg 95%
    20:00 +8°C° 0 mm 1 mps 650 mmHg 95%
    21:00 +8°C° 0 mm 1 mps 650 mmHg 95%
    22:00 +8°C° 0 mm 1 mps 650 mmHg 95%
    23:00 +7°C° 0 mm 1 mps 650 mmHg 94%
    Show more